QPF
0.02 0.03 0.05 0.08 0.11 0.12 0.09 0.05 0.04 0.04 0.03 0.03 0.03 0.01 0.01 0.02 0.01 0.01 0.00 0.00 0.00 0.00 0.00 0.00 0.00 0.00 0.00 0.00 0.00 0.00 0.00 0.00 0.00 0.00 0.00 0.00 0.00 0.00 0.01 0.01 0.01 0.01 0.01 0.01
0.05 0.03 0.05 0.07 0.09 0.09 0.08 0.05 0.03 0.01 0.00 0.01 0.00 0.00 0.00 0.01 0.01 0.00 0.00 0.00 0.00 0.00 0.00 0.00 0.00 0.00 0.00 0.00 0.00 0.00 0.00 0.00 0.00 0.00 0.00 0.00 0.00 0.00 0.00 0.01 0.00 0.01 0.02 0.02
0.07 0.05 0.04 0.05 0.07 0.07 0.04 0.03 0.03 0.01 0.00 0.00 0.00 0.00 0.00 0.00 0.00 0.00 0.00 0.00 0.00 0.00 0.00 0.00 0.00 0.00 0.00 0.00 0.00 0.00 0.00 0.00 0.00 0.00 0.00 0.00 0.00 0.00 0.01 0.01 0.01 0.01 0.02 0.02
0.11 0.08 0.05 0.05 0.05 0.04 0.02 0.01 0.01 0.01 0.00 0.00 0.00 0.00 0.00 0.00 0.00 0.00 0.00 0.00 0.00 0.00 0.00 0.00 0.00 0.00 0.00 0.00 0.00 0.00 0.00 0.00 0.00 0.00 0.00 0.00 0.00 0.00 0.01 0.01 0.01 0.01 0.01 0.01
0.08 0.06 0.05 0.05 0.03 0.02 0.01 0.00 0.00 0.00 0.00 0.00 0.00 0.00 0.00 0.00 0.00 0.00 0.00 0.00 0.00 0.00 0.00 0.00 0.00 0.00 0.00 0.00 0.00 0.00 0.00 0.00 0.00 0.00 0.00 0.00 0.00 0.01 0.01 0.02 0.02 0.01 0.01 0.01
0.06 0.04 0.04 0.02 0.01 0.01 0.00 0.00 0.00 0.00 0.00 0.00 0.00 0.00 0.00 0.00 0.00 0.00 0.00 0.00 0.00 0.00 0.00 0.00 0.00 0.00 0.00 0.00 0.00 0.00 0.00 0.00 0.00 0.00 0.00 0.01 0.01 0.02 0.02 0.02 0.01 0.01 0.01 0.02
0.05 0.02 0.01 0.01 0.01 0.00 0.00 0.00 0.00 0.00 0.00 0.00 0.00 0.00 0.00 0.00 0.00 0.00 0.00 0.00 0.00 0.00 0.00 0.00 0.00 0.00 0.00 0.00 0.00 0.00 0.00 0.00 0.00 0.00 0.00 0.00 0.01 0.02 0.02 0.02 0.02 0.02 0.02 0.02
0.03 0.01 0.00 0.00 0.00 0.00 0.00 0.00 0.00 0.00 0.00 0.00 0.00 0.00 0.00 0.00 0.00 0.00 0.00 0.00 0.00 0.00 0.00 0.00 0.00 0.00 0.00 0.00 0.00 0.00 0.00 0.00 0.00 0.00 0.00 0.00 0.00 0.01 0.02 0.03 0.03 0.04 0.04 0.04
0.02 0.01 0.00 0.00 0.00 0.00 0.00 0.00 0.00 0.00 0.00 0.00 0.00 0.00 0.00 0.00 0.00 0.00 0.00 0.00 0.00 0.00 0.00 0.00 0.00 0.00 0.00 0.00 0.00 0.00 0.00 0.00 0.00 0.00 0.00 0.00 0.00 0.01 0.02 0.02 0.03 0.03 0.04 0.05
0.02 0.01 0.00 0.00 0.00 0.00 0.00 0.00 0.00 0.00 0.00 0.00 0.00 0.00 0.00 0.00 0.00 0.00 0.00 0.00 0.00 0.00 0.00 0.00 0.00 0.00 0.00 0.00 0.00 0.00 0.00 0.00 0.00 0.00 0.00 0.00 0.00 0.00 0.01 0.02 0.02 0.03 0.04 0.04
0.01 0.01 0.00 0.00 0.00 0.00 0.00 0.00 0.00 0.00 0.00 0.00 0.00 0.00 0.00 0.00 0.00 0.00 0.00 0.00 0.00 0.00 0.00 0.00 0.00 0.00 0.00 0.00 0.00 0.00 0.00 0.00 0.00 0.00 0.00 0.00 0.00 0.01 0.01 0.01 0.01 0.01 0.01 0.02
0.00 0.00 0.00 0.00 0.00 0.00 0.00 0.00 0.00 0.00 0.00 0.00 0.00 0.00 0.00 0.00 0.00 0.00 0.00 0.00 0.00 0.00 0.00 0.00 0.00 0.00 0.00 0.00 0.00 0.00 0.00 0.00 0.00 0.00 0.00 0.00 0.00 0.00 0.01 0.00 0.00 0.00 0.00 0.00
0.00 0.00 0.00 0.00 0.00 0.00 0.00 0.00 0.00 0.00 0.00 0.00 0.00 0.00 0.00 0.00 0.00 0.00 0.00 0.00 0.00 0.00 0.00 0.00 0.00 0.00 0.00 0.00 0.00 0.00 0.00 0.00 0.00 0.00 0.00 0.00 0.00 0.00 0.00 0.00 0.00 0.00 0.00 0.01
0.00 0.00 0.00 0.00 0.00 0.00 0.00 0.00 0.00 0.00 0.00 0.00 0.00 0.00 0.00 0.00 0.00 0.00 0.00 0.00 0.00 0.00 0.00 0.00 0.00 0.00 0.00 0.00 0.00 0.00 0.00 0.00 0.00 0.00 0.00 0.00 0.00 0.00 0.00 0.00 0.00 0.00 0.00 0.00
0.00 0.00 0.00 0.00 0.00 0.00 0.00 0.00 0.00 0.00 0.00 0.00 0.00 0.00 0.00 0.00 0.00 0.00 0.00 0.00 0.00 0.00 0.00 0.00 0.00 0.00 0.00 0.00 0.00 0.00 0.00 0.00 0.00 0.00 0.00 0.00 0.00 0.00 0.00 0.00 0.00 0.00 0.00 0.00
0.00 0.00 0.00 0.00 0.00 0.00 0.00 0.00 0.00 0.00 0.00 0.00 0.00 0.00 0.00 0.00 0.00 0.00 0.00 0.00 0.00 0.00 0.00 0.00 0.00 0.00 0.00 0.00 0.00 0.00 0.00 0.00 0.00 0.00 0.00 0.00 0.00 0.00 0.00 0.00 0.00 0.00 0.00 0.00
0.00 0.00 0.00 0.00 0.00 0.00 0.00 0.00 0.00 0.00 0.00 0.00 0.00 0.00 0.00 0.00 0.00 0.00 0.00 0.00 0.00 0.00 0.00 0.00 0.00 0.00 0.00 0.00 0.00 0.00 0.00 0.00 0.00 0.00 0.00 0.00 0.00 0.00 0.00 0.00 0.00 0.00 0.00 0.00
0.00 0.00 0.00 0.00 0.00 0.00 0.00 0.00 0.00 0.00 0.00 0.00 0.00 0.00 0.00 0.00 0.00 0.00 0.00 0.00 0.00 0.00 0.00 0.00 0.00 0.00 0.00 0.00 0.00 0.00 0.00 0.00 0.00 0.00 0.00 0.00 0.00 0.00 0.00 0.00 0.00 0.00 0.00 0.00
0.00 0.00 0.00 0.00 0.00 0.00 0.00 0.00 0.00 0.00 0.00 0.00 0.00 0.00 0.00 0.00 0.00 0.00 0.00 0.00 0.00 0.00 0.00 0.00 0.00 0.00 0.00 0.00 0.00 0.00 0.00 0.00 0.00 0.00 0.00 0.00 0.00 0.00 0.00 0.00 0.00 0.00 0.00 0.00
0.00 0.00 0.00 0.00 0.00 0.00 0.00 0.00 0.00 0.00 0.00 0.00 0.00 0.00 0.00 0.00 0.00 0.00 0.00 0.00 0.00 0.00 0.00 0.00 0.00 0.00 0.00 0.00 0.00 0.00 0.00 0.00 0.00 0.00 0.00 0.00 0.00 0.00 0.00 0.00 0.00 0.00 0.00 0.00
0.00 0.00 0.00 0.00 0.00 0.00 0.00 0.00 0.00 0.00 0.00 0.00 0.00 0.00 0.00 0.00 0.00 0.00 0.00 0.00 0.00 0.00 0.00 0.00 0.00 0.00 0.00 0.00 0.00 0.00 0.00 0.00 0.00 0.00 0.00 0.00 0.00 0.00 0.00 0.00 0.00 0.00 0.00 0.00
0.00 0.00 0.00 0.00 0.00 0.00 0.00 0.00 0.00 0.00 0.00 0.00 0.00 0.00 0.00 0.00 0.00 0.00 0.00 0.00 0.00 0.00 0.00 0.00 0.00 0.00 0.00 0.00 0.00 0.00 0.00 0.00 0.00 0.00 0.00 0.00 0.00 0.00 0.00 0.00 0.00 0.00 0.00 0.00
0.00 0.00 0.00 0.00 0.00 0.00 0.00 0.00 0.00 0.00 0.00 0.00 0.00 0.00 0.00 0.00 0.00 0.00 0.00 0.00 0.00 0.00 0.00 0.00 0.00 0.00 0.00 0.00 0.00 0.00 0.00 0.00 0.00 0.00 0.00 0.00 0.00 0.00 0.00 0.00 0.00 0.00 0.00 0.00
0.00 0.00 0.00 0.00 0.00 0.00 0.00 0.00 0.00 0.00 0.00 0.00 0.00 0.00 0.00 0.00 0.00 0.00 0.00 0.00 0.00 0.00 0.00 0.00 0.00 0.00 0.00 0.00 0.00 0.00 0.00 0.00 0.00 0.00 0.00 0.00 0.00 0.00 0.00 0.00 0.00 0.00 0.00 0.00
0.00 0.00 0.00 0.00 0.00 0.00 0.00 0.00 0.00 0.00 0.00 0.00 0.00 0.00 0.00 0.00 0.00 0.00 0.00 0.00 0.00 0.00 0.00 0.00 0.00 0.00 0.00 0.00 0.00 0.00 0.00 0.00 0.00 0.00 0.00 0.00 0.00 0.00 0.00 0.00 0.00 0.00 0.00 0.00
0.00 0.00 0.00 0.00 0.00 0.00 0.00 0.00 0.00 0.00 0.00 0.00 0.00 0.00 0.00 0.00 0.00 0.00 0.00 0.00 0.00 0.00 0.00 0.00 0.00 0.00 0.00 0.00 0.00 0.00 0.00 0.00 0.00 0.00 0.00 0.00 0.00 0.00 0.00 0.00 0.00 0.00 0.00 0.00
MSLP
1011.76 1013.13 1014.35 1015.36 1016.11 1016.61 1016.88 1016.96 1016.90 1016.76 1016.58 1016.37 1016.15 1015.92 1015.69 1015.48 1015.30 1015.16 1015.08 1015.06 1015.10 1015.18 1015.28 1015.38 1015.45 1015.48 1015.46 1015.40 1015.32 1015.23 1015.14 1015.07 1015.01 1014.95 1014.87 1014.75 1014.58 1014.36 1014.07 1013.75 1013.41 1013.08 1012.77 1012.52
1012.29 1013.41 1014.36 1015.12 1015.68 1016.07 1016.32 1016.46 1016.53 1016.55 1016.51 1016.41 1016.26 1016.04 1015.79 1015.52 1015.28 1015.10 1015.01 1015.01 1015.10 1015.26 1015.44 1015.59 1015.69 1015.72 1015.66 1015.55 1015.40 1015.24 1015.12 1015.04 1015.00 1014.98 1014.97 1014.91 1014.79 1014.60 1014.32 1013.99 1013.63 1013.27 1012.95 1012.68
1012.69 1013.55 1014.24 1014.78 1015.19 1015.52 1015.79 1016.04 1016.27 1016.46 1016.57 1016.60 1016.50 1016.29 1015.99 1015.64 1015.32 1015.08 1014.95 1014.95 1015.07 1015.28 1015.51 1015.71 1015.83 1015.84 1015.75 1015.58 1015.38 1015.18 1015.03 1014.95 1014.94 1014.98 1015.02 1015.04 1014.98 1014.83 1014.57 1014.24 1013.87 1013.49 1013.15 1012.86
1012.97 1013.57 1014.03 1014.40 1014.71 1015.03 1015.39 1015.79 1016.21 1016.58 1016.86 1016.99 1016.94 1016.70 1016.33 1015.88 1015.44 1015.09 1014.89 1014.85 1014.97 1015.19 1015.45 1015.68 1015.81 1015.82 1015.70 1015.50 1015.25 1015.03 1014.87 1014.80 1014.83 1014.92 1015.04 1015.12 1015.12 1015.02 1014.79 1014.48 1014.10 1013.71 1013.35 1013.05
1013.15 1013.52 1013.79 1014.04 1014.32 1014.69 1015.18 1015.77 1016.39 1016.96 1017.39 1017.60 1017.57 1017.28 1016.80 1016.22 1015.63 1015.14 1014.83 1014.71 1014.78 1014.99 1015.26 1015.49 1015.64 1015.65 1015.53 1015.32 1015.06 1014.82 1014.67 1014.63 1014.69 1014.84 1015.01 1015.15 1015.21 1015.15 1014.96 1014.67 1014.30 1013.91 1013.54 1013.23
1013.29 1013.46 1013.59 1013.76 1014.07 1014.54 1015.19 1015.98 1016.80 1017.54 1018.10 1018.37 1018.32 1017.95 1017.34 1016.59 1015.83 1015.18 1014.73 1014.51 1014.52 1014.69 1014.95 1015.19 1015.35 1015.38 1015.28 1015.08 1014.83 1014.61 1014.47 1014.45 1014.55 1014.73 1014.95 1015.13 1015.24 1015.21 1015.06 1014.79 1014.44 1014.06 1013.69 1013.37
1013.43 1013.44 1013.48 1013.63 1013.99 1014.58 1015.39 1016.36 1017.35 1018.22 1018.86 1019.15 1019.05 1018.58 1017.82 1016.90 1015.97 1015.16 1014.56 1014.24 1014.17 1014.31 1014.55 1014.81 1015.00 1015.07 1015.00 1014.83 1014.62 1014.42 1014.31 1014.31 1014.42 1014.62 1014.85 1015.06 1015.18 1015.19 1015.06 1014.82 1014.49 1014.13 1013.78 1013.47
1013.60 1013.50 1013.49 1013.65 1014.07 1014.77 1015.71 1016.81 1017.91 1018.86 1019.52 1019.78 1019.61 1019.03 1018.13 1017.06 1015.97 1015.02 1014.31 1013.90 1013.78 1013.88 1014.13 1014.41 1014.64 1014.75 1014.74 1014.62 1014.45 1014.29 1014.19 1014.20 1014.31 1014.50 1014.73 1014.93 1015.06 1015.07 1014.96 1014.75 1014.45 1014.12 1013.80 1013.50
1013.77 1013.63 1013.60 1013.80 1014.28 1015.05 1016.07 1017.22 1018.36 1019.31 1019.93 1020.13 1019.86 1019.17 1018.16 1016.98 1015.79 1014.75 1013.98 1013.52 1013.36 1013.46 1013.72 1014.03 1014.29 1014.46 1014.51 1014.45 1014.32 1014.20 1014.12 1014.12 1014.22 1014.38 1014.58 1014.76 1014.87 1014.88 1014.79 1014.59 1014.33 1014.04 1013.74 1013.48
1013.92 1013.78 1013.78 1014.01 1014.53 1015.33 1016.36 1017.50 1018.58 1019.46 1019.99 1020.09 1019.73 1018.95 1017.87 1016.64 1015.42 1014.36 1013.57 1013.11 1012.96 1013.07 1013.35 1013.68 1013.99 1014.20 1014.30 1014.29 1014.21 1014.11 1014.05 1014.04 1014.12 1014.24 1014.40 1014.54 1014.63 1014.63 1014.54 1014.38 1014.15 1013.89 1013.64 1013.41
1013.99 1013.90 1013.96 1014.23 1014.77 1015.55 1016.52 1017.56 1018.52 1019.25 1019.65 1019.63 1019.18 1018.36 1017.28 1016.06 1014.88 1013.88 1013.15 1012.73 1012.61 1012.74 1013.03 1013.38 1013.71 1013.95 1014.08 1014.11 1014.06 1013.99 1013.94 1013.93 1013.98 1014.08 1014.19 1014.30 1014.36 1014.36 1014.28 1014.13 1013.94 1013.72 1013.51 1013.31
1013.94 1013.96 1014.09 1014.41 1014.94 1015.66 1016.51 1017.38 1018.16 1018.72 1018.96 1018.82 1018.31 1017.49 1016.45 1015.33 1014.27 1013.38 1012.74 1012.39 1012.32 1012.47 1012.76 1013.10 1013.41 1013.65 1013.79 1013.84 1013.82 1013.77 1013.74 1013.74 1013.78 1013.86 1013.96 1014.04 1014.09 1014.08 1014.01 1013.90 1013.74 1013.56 1013.38 1013.20
1013.80 1013.94 1014.16 1014.51 1015.01 1015.63 1016.32 1017.00 1017.56 1017.92 1018.00 1017.76 1017.22 1016.44 1015.51 1014.53 1013.63 1012.90 1012.40 1012.14 1012.11 1012.25 1012.51 1012.81 1013.08 1013.28 1013.40 1013.45 1013.45 1013.43 1013.42 1013.45 1013.51 1013.60 1013.69 1013.78 1013.83 1013.83 1013.78 1013.69 1013.57 1013.43 1013.27 1013.12
1013.61 1013.87 1014.17 1014.54 1014.98 1015.48 1015.99 1016.45 1016.79 1016.94 1016.87 1016.56 1016.02 1015.32 1014.53 1013.75 1013.04 1012.49 1012.12 1011.95 1011.95 1012.07 1012.27 1012.49 1012.68 1012.81 1012.89 1012.93 1012.94 1012.96 1012.99 1013.06 1013.16 1013.29 1013.41 1013.51 1013.59 1013.61 1013.59 1013.53 1013.44 1013.32 1013.19 1013.05
1013.46 1013.81 1014.16 1014.52 1014.88 1015.23 1015.55 1015.79 1015.90 1015.87 1015.67 1015.31 1014.81 1014.22 1013.60 1013.01 1012.51 1012.14 1011.90 1011.80 1011.81 1011.89 1012.01 1012.12 1012.21 1012.26 1012.29 1012.31 1012.34 1012.39 1012.48 1012.62 1012.78 1012.95 1013.12 1013.26 1013.36 1013.41 1013.42 1013.39 1013.32 1013.23 1013.12 1012.99
1013.41 1013.81 1014.16 1014.47 1014.73 1014.92 1015.03 1015.05 1014.97 1014.77 1014.46 1014.07 1013.63 1013.16 1012.72 1012.33 1012.03 1011.82 1011.71 1011.66 1011.67 1011.69 1011.71 1011.72 1011.70 1011.67 1011.65 1011.65 1011.70 1011.80 1011.96 1012.16 1012.39 1012.62 1012.83 1013.01 1013.14 1013.22 1013.25 1013.24 1013.19 1013.12 1013.03 1012.91
1013.53 1013.91 1014.21 1014.42 1014.54 1014.55 1014.46 1014.28 1014.00 1013.66 1013.28 1012.88 1012.50 1012.15 1011.88 1011.68 1011.55 1011.49 1011.48 1011.48 1011.48 1011.44 1011.38 1011.29 1011.19 1011.10 1011.04 1011.04 1011.11 1011.25 1011.47 1011.74 1012.02 1012.31 1012.56 1012.76 1012.91 1013.00 1013.04 1013.04 1013.00 1012.95 1012.86 1012.75
1013.81 1014.10 1014.29 1014.36 1014.30 1014.12 1013.83 1013.45 1013.02 1012.56 1012.12 1011.73 1011.40 1011.18 1011.05 1011.01 1011.04 1011.10 1011.17 1011.22 1011.22 1011.16 1011.04 1010.89 1010.74 1010.61 1010.53 1010.54 1010.64 1010.84 1011.10 1011.41 1011.73 1012.04 1012.30 1012.50 1012.64 1012.72 1012.75 1012.75 1012.72 1012.67 1012.59 1012.49
1014.16 1014.31 1014.34 1014.22 1013.97 1013.60 1013.13 1012.58 1012.02 1011.47 1010.99 1010.60 1010.34 1010.21 1010.20 1010.30 1010.46 1010.63 1010.78 1010.88 1010.90 1010.84 1010.72 1010.56 1010.39 1010.26 1010.20 1010.24 1010.37 1010.59 1010.88 1011.20 1011.52 1011.81 1012.05 1012.22 1012.33 1012.38 1012.38 1012.36 1012.32 1012.27 1012.20 1012.10
1014.47 1014.44 1014.27 1013.97 1013.53 1012.97 1012.34 1011.66 1010.99 1010.38 1009.88 1009.52 1009.31 1009.27 1009.36 1009.56 1009.82 1010.09 1010.32 1010.48 1010.56 1010.54 1010.45 1010.32 1010.19 1010.10 1010.07 1010.14 1010.30 1010.53 1010.82 1011.12 1011.40 1011.64 1011.82 1011.93 1011.98 1011.97 1011.93 1011.88 1011.82 1011.76 1011.69 1011.60
1014.58 1014.36 1014.00 1013.52 1012.91 1012.21 1011.45 1010.68 1009.96 1009.32 1008.83 1008.50 1008.35 1008.37 1008.55 1008.84 1009.18 1009.53 1009.84 1010.08 1010.23 1010.28 1010.26 1010.20 1010.14 1010.11 1010.14 1010.24 1010.41 1010.64 1010.89 1011.14 1011.36 1011.52 1011.61 1011.64 1011.60 1011.54 1011.45 1011.36 1011.28 1011.20 1011.13 1011.04
1014.36 1013.97 1013.45 1012.82 1012.09 1011.29 1010.47 1009.67 1008.94 1008.32 1007.87 1007.59 1007.50 1007.58 1007.83 1008.18 1008.60 1009.02 1009.40 1009.72 1009.96 1010.10 1010.18 1010.22 1010.24 1010.29 1010.37 1010.50 1010.67 1010.87 1011.07 1011.24 1011.36 1011.43 1011.43 1011.36 1011.26 1011.13 1010.99 1010.87 1010.76 1010.67 1010.58 1010.49
1013.75 1013.23 1012.59 1011.87 1011.07 1010.24 1009.42 1008.64 1007.96 1007.41 1007.02 1006.81 1006.79 1006.95 1007.24 1007.65 1008.12 1008.61 1009.06 1009.46 1009.78 1010.03 1010.21 1010.34 1010.46 1010.58 1010.70 1010.85 1011.01 1011.16 1011.30 1011.39 1011.42 1011.39 1011.30 1011.16 1010.99 1010.80 1010.63 1010.48 1010.35 1010.24 1010.14 1010.03
1012.74 1012.13 1011.44 1010.68 1009.88 1009.09 1008.32 1007.63 1007.05 1006.60 1006.32 1006.20 1006.26 1006.48 1006.84 1007.29 1007.80 1008.33 1008.84 1009.31 1009.71 1010.05 1010.32 1010.55 1010.75 1010.93 1011.09 1011.24 1011.38 1011.49 1011.55 1011.56 1011.51 1011.40 1011.24 1011.05 1010.84 1010.63 1010.44 1010.28 1010.14 1010.01 1009.89 1009.75
1011.42 1010.78 1010.07 1009.32 1008.58 1007.87 1007.21 1006.64 1006.20 1005.89 1005.73 1005.73 1005.88 1006.17 1006.58 1007.08 1007.62 1008.19 1008.75 1009.27 1009.74 1010.15 1010.51 1010.81 1011.07 1011.29 1011.48 1011.62 1011.73 1011.80 1011.80 1011.75 1011.64 1011.48 1011.29 1011.08 1010.86 1010.66 1010.47 1010.31 1010.17 1010.03 1009.89 1009.72
1009.93 1009.28 1008.59 1007.89 1007.23 1006.62 1006.10 1005.69 1005.40 1005.24 1005.22 1005.34 1005.59 1005.96 1006.43 1006.96 1007.55 1008.15 1008.74 1009.30 1009.83 1010.30 1010.71 1011.07 1011.38 1011.63 1011.82 1011.97 1012.05 1012.08 1012.05 1011.96 1011.82 1011.65 1011.46 1011.26 1011.07 1010.89 1010.73 1010.59 1010.46 1010.32 1010.15 1009.94
Thickness
5759 5744 5733 5737 5742 5741 5734 5726 5723 5732 5746 5736 5727 5726 5728 5730 5727 5722 5719 5716 5713 5711 5711 5710 5707 5704 5700 5696 5692 5688 5684 5680 5677 5674 5671 5670 5669 5671 5672 5674 5676 5678 5679 5681
5739 5735 5747 5751 5749 5742 5735 5726 5724 5734 5745 5735 5726 5726 5731 5730 5727 5725 5720 5716 5713 5710 5708 5706 5704 5702 5698 5694 5691 5687 5683 5680 5677 5673 5671 5669 5668 5668 5669 5671 5673 5674 5675 5677
5731 5741 5753 5749 5742 5734 5730 5725 5726 5728 5735 5735 5725 5714 5721 5728 5729 5726 5724 5720 5716 5712 5707 5705 5703 5700 5698 5694 5691 5688 5684 5681 5677 5675 5672 5669 5667 5666 5666 5667 5668 5670 5671 5672
5732 5745 5748 5742 5737 5734 5723 5739 5738 5733 5718 5707 5717 5693 5710 5719 5720 5721 5720 5718 5716 5714 5711 5707 5705 5701 5698 5696 5693 5689 5685 5681 5679 5675 5671 5667 5664 5662 5662 5663 5664 5666 5668 5668
5730 5741 5739 5734 5740 5741 5734 5746 5740 5733 5720 5707 5708 5693 5699 5715 5712 5716 5718 5719 5717 5716 5713 5710 5707 5704 5702 5699 5694 5690 5686 5682 5679 5676 5672 5668 5664 5663 5662 5662 5662 5663 5664 5665
5735 5747 5746 5743 5750 5751 5746 5736 5724 5710 5701 5691 5706 5694 5696 5704 5714 5719 5720 5720 5719 5717 5715 5712 5710 5706 5703 5700 5696 5691 5686 5683 5679 5676 5672 5668 5665 5663 5661 5660 5659 5658 5659 5660
5724 5737 5749 5753 5740 5742 5733 5708 5687 5687 5676 5684 5707 5699 5700 5720 5727 5726 5722 5720 5719 5718 5714 5711 5708 5705 5703 5700 5696 5692 5687 5683 5679 5676 5673 5669 5666 5663 5660 5658 5656 5655 5655 5655
5707 5711 5738 5748 5740 5730 5726 5709 5685 5677 5676 5684 5704 5698 5708 5729 5732 5731 5728 5724 5721 5718 5716 5714 5711 5708 5704 5702 5698 5693 5688 5684 5680 5677 5673 5670 5667 5664 5661 5658 5656 5654 5653 5653
5708 5712 5741 5749 5751 5741 5725 5711 5709 5690 5690 5682 5689 5702 5716 5727 5726 5725 5724 5722 5720 5719 5718 5716 5713 5710 5707 5703 5699 5695 5690 5685 5682 5678 5675 5671 5668 5665 5662 5659 5656 5654 5653 5654
5725 5714 5730 5743 5746 5742 5734 5719 5698 5691 5679 5674 5689 5695 5695 5713 5717 5722 5722 5722 5722 5722 5720 5718 5715 5712 5709 5706 5702 5697 5692 5687 5683 5680 5676 5673 5669 5666 5663 5660 5657 5655 5654 5653
5730 5713 5717 5727 5725 5722 5726 5722 5701 5684 5682 5673 5677 5690 5720 5722 5726 5726 5726 5727 5726 5724 5722 5719 5716 5714 5711 5707 5703 5698 5693 5689 5685 5681 5678 5674 5670 5667 5664 5661 5658 5656 5654 5653
5729 5708 5700 5714 5729 5736 5730 5722 5704 5689 5688 5681 5674 5692 5735 5734 5735 5733 5731 5731 5730 5728 5725 5722 5719 5715 5711 5708 5704 5699 5695 5691 5687 5683 5679 5675 5672 5668 5665 5662 5659 5657 5655 5653
5729 5706 5688 5694 5707 5725 5727 5726 5714 5698 5687 5679 5677 5700 5734 5734 5736 5736 5734 5733 5731 5729 5726 5722 5719 5715 5712 5709 5705 5701 5697 5693 5689 5685 5680 5676 5672 5669 5665 5663 5661 5658 5656 5653
5733 5709 5697 5694 5701 5713 5719 5724 5721 5704 5687 5689 5695 5709 5728 5732 5733 5734 5735 5734 5732 5730 5727 5723 5719 5716 5714 5711 5707 5703 5699 5695 5691 5686 5681 5677 5673 5670 5667 5664 5662 5659 5657 5654
5729 5712 5715 5716 5724 5722 5723 5724 5722 5714 5706 5699 5710 5718 5728 5733 5736 5738 5737 5735 5734 5731 5729 5726 5721 5718 5716 5712 5709 5705 5701 5697 5693 5687 5683 5679 5676 5673 5669 5666 5663 5661 5658 5656
5724 5716 5718 5718 5728 5728 5725 5727 5725 5723 5722 5718 5721 5724 5741 5743 5741 5740 5739 5737 5734 5733 5732 5730 5726 5722 5718 5715 5711 5707 5703 5699 5694 5689 5685 5682 5678 5674 5671 5668 5665 5662 5660 5657
5716 5712 5705 5699 5714 5720 5712 5727 5727 5728 5733 5729 5722 5731 5743 5740 5740 5741 5741 5740 5738 5737 5736 5733 5729 5725 5722 5718 5714 5709 5706 5701 5695 5691 5687 5683 5679 5675 5672 5669 5666 5663 5660 5658
5715 5705 5694 5694 5704 5695 5720 5747 5746 5740 5742 5743 5744 5745 5746 5746 5748 5749 5747 5743 5741 5740 5738 5735 5731 5728 5725 5721 5717 5713 5707 5701 5696 5691 5688 5684 5680 5677 5673 5670 5667 5664 5662 5659
5724 5709 5693 5686 5689 5700 5727 5749 5748 5739 5739 5751 5749 5750 5750 5750 5745 5743 5750 5749 5745 5743 5740 5737 5734 5730 5726 5722 5717 5712 5706 5701 5696 5692 5688 5685 5682 5678 5674 5671 5668 5666 5663 5661
5717 5710 5695 5685 5690 5692 5724 5752 5761 5750 5735 5756 5755 5751 5748 5742 5726 5732 5749 5749 5746 5744 5740 5737 5733 5729 5724 5721 5716 5710 5704 5699 5695 5693 5690 5687 5683 5679 5675 5672 5670 5667 5664 5662
5705 5700 5691 5686 5687 5702 5736 5754 5754 5723 5730 5759 5758 5755 5749 5743 5741 5745 5749 5747 5744 5742 5739 5735 5731 5726 5722 5719 5714 5708 5703 5699 5698 5695 5691 5687 5684 5680 5677 5674 5671 5668 5665 5662
5699 5692 5687 5681 5683 5700 5747 5749 5739 5741 5757 5760 5758 5757 5753 5750 5749 5747 5745 5742 5740 5737 5735 5732 5726 5722 5720 5716 5712 5705 5701 5700 5697 5693 5689 5686 5683 5680 5679 5673 5671 5668 5664 5661
5704 5710 5705 5705 5714 5739 5749 5752 5759 5758 5756 5758 5757 5756 5753 5748 5745 5743 5740 5738 5736 5734 5730 5727 5722 5717 5714 5712 5708 5702 5700 5698 5695 5690 5686 5684 5681 5678 5676 5672 5669 5666 5663 5660
5711 5720 5712 5713 5726 5740 5748 5754 5759 5759 5758 5759 5758 5755 5752 5746 5743 5739 5736 5732 5730 5728 5725 5722 5717 5712 5708 5706 5703 5700 5698 5695 5691 5686 5683 5680 5677 5675 5673 5670 5668 5664 5661 5659
5712 5717 5710 5712 5727 5736 5743 5748 5753 5756 5757 5755 5754 5752 5749 5744 5739 5735 5731 5728 5725 5723 5720 5716 5711 5706 5702 5700 5697 5695 5693 5691 5685 5681 5678 5675 5673 5670 5668 5667 5665 5663 5662 5659
5712 5711 5706 5709 5726 5725 5734 5747 5749 5748 5748 5749 5747 5745 5744 5742 5737 5732 5727 5724 5720 5717 5713 5708 5704 5699 5695 5692 5690 5688 5687 5684 5680 5675 5672 5669 5667 5665 5663 5661 5660 5661 5659 5658